Weather in Mizhhirya

Russia / Republic of Crimea     44°58′36″N   34°24′48″E
temp.,
°C
wind,
m/s
gust,
m/s
humid.,
%
clouds,
%
prec.,
mm/h
press.,
hPa
HPBL,
m
25 july, sun
sun2500:00+17se11540 0.0 101611
03:00+16sse11640 0.0 101611
06:00+16sse11690 0.0 101611
09:00+23ne35530 0.0 1017891
12:00+26ne56350 0.0 10162014
15:00+27ne65330 0.0 10162024
18:00+25ne54431 0.0 10161462
21:00+19ene22680 0.0 101726
26 july, mon
mon2600:00+20e116471 0.0 101723
03:00+19e117719 0.0 101714
06:00+19ese118438 0.0 101716
09:00+26ne58499 0.0 10171171
12:00+28ne784069 0.0 10172398
15:00+28ne883948 0.0 10172172
18:00+25ne484940 0.0 1017723
21:00+21ne116280 0.1 101816
27 july, tue
tue2700:00+21nne246622 0.0 1018105
03:00+20nne13763 0.0 101872
06:00+20nw01764 0.0 101813
09:00+26nne35544 0.0 1018758
12:00+29ne553648 0.0 10182545
15:00+30ne443044 0.0 10172762
18:00+27ene66413 0.0 10181003
21:00+21e11610 0.0 101912
28 july, wed
wed2800:00+20sse11670 0.0 101911
03:00+19sse22750 0.0 101819
06:00+20se22700 0.0 101914
09:00+26ese35370 0.0 1018974
12:00+29e44325 0.0 10182036
15:00+30ene44277 0.0 10172531
18:00+28ene43336 0.0 10171373
21:00+20w22623 0.0 101831
29 july, thu
thu2900:00+19sw21663 0.0 101711
03:00+19ssw11622 0.0 101711
06:00+19ssw11550 0.0 101611
09:00+27e11340 0.0 1015613
12:00+30n22260 0.0 10141991
15:00+32nnw342824 0.0 10132631
18:00+29wnw353562 0.0 1013997
21:00+22wsw34560 0.0 101463